Regional Weather Roundup
Issued by NWS

Home | Current Version | Previous Version | Text Only | Print | Product List | Glossary On
Versions: 1 2 3 4 5 6 7 8 9 10 11 12 13 14 15 16 17 18 19 20 21 22 23 24 25 26 27 28 29 30 31 32 33 34 35 36 37 38 39 40 41 42 43 44 45 46 47 48 49 50
000
ASUS44 KLUB 282301
RWRTX
WEST TEXAS WEATHER ROUNDUP
NATIONAL WEATHER SERVICE LUBBOCK TX
600 PM CDT THU AUG 28 2014

NOTE: "FAIR" INDICATES FEW OR NO CLOUDS BELOW 12,000 FEET WITH NO
SIGNIFICANT WEATHER AND/OR OBSTRUCTIONS TO VISIBILITY.

TXZ004-006>008-010-012-014-016-OKZ002-290000-
TEXAS PANHANDLE/OKLAHOMA PANHANDLE

CITY           SKY/WX    TMP DP  RH WIND       PRES   REMARKS
AMARILLO       CLOUDY    77  62  59 SE15      29.94R
BORGER         MOSUNNY   85  56  37 SE14      29.89F
CANADIAN       CLOUDY    80  67  63 SE8       29.89S
DALHART        PTSUNNY   84  49  29 NE6       29.98F
DUMAS          SUNNY     86  53  31 N8        29.95F
GUYMON         MOSUNNY   87  51  28 N8        29.91F
HEREFORD       MOSUNNY   91  47  22 N7        29.92F
PAMPA          MOSUNNY   83  56  39 S10       29.93R
PERRYTON       PTSUNNY   87  59  39 E7        29.90F
$$

TXZ026-029-035-045-048-290000-
SOUTHERN PANHANDLE/SOUTH PLAINS/ROLLING PLAINS

CITY           SKY/WX    TMP DP  RH WIND       PRES   REMARKS
CHILDRESS      TSTM      69  64  84 W14G29    29.95R
SEMINOLE       PTSUNNY   95  51  22 W8        29.91S
LUBBOCK        PTSUNNY   76  62  62 S14G24    29.90R
PLAINVIEW      PTSUNNY   80  64  57 SE9       29.90R
SNYDER         MOSUNNY   95  61  31 S17G24    29.86S HX  95
$$

TXZ052-054-060>062-072-078-127-140-154-169-290000-
PERMIAN BASIN/CONCHO VALLEY/BIG COUNTRY/EDWARDS PLATEAU

CITY           SKY/WX    TMP DP  RH WIND       PRES   REMARKS
ABILENE        SUNNY     96  59  29 S13G21    29.84F HX  95
BIG SPRING     CLOUDY    94  60  31 S13       29.88F
BRADY          SUNNY     95  57  28 SE8       29.87S
BROWNWOOD      LGT RAIN  95  57  28 SE15      29.84F
JUNCTION       SUNNY     95  58  28 NE3       29.87S
MIDLAND        PTSUNNY   94  60  32 E17       29.87S
ODESSA         MOSUNNY   96  53  23 SW12      29.88F THUNDER
SAN ANGELO     MOSUNNY   95  59  30 E8        29.85F
SONORA         SUNNY     93  61  33 S9        29.92S
SWEETWATER     MOSUNNY   94  57  28 SE13G22   29.88F
WINK           MOSUNNY  100  52  19 NW9       29.84F HX  97
$$

TXZ055-058-074-075-080-082-290000-
FAR WEST/SOUTHWEST MOUNTAINS/TRANS PECOS

CITY           SKY/WX    TMP DP  RH WIND       PRES   REMARKS
ALPINE         MOSUNNY   82  58  42 E13       30.09S
DRYDEN           N/A    100  58  24 S10       29.85F HX  99
EL PASO        MOSUNNY   91  49  23 N9        29.98F
FORT STOCKTON  PTSUNNY   90  59  35 S18       29.91S
GUADALUPE PASS MOSUNNY   90  44  20 W18G29    30.10F
MARFA          PTSUNNY   90  52  27 W15       30.06F
PRESIDIO       FAIR      97  56  25 CALM      29.88F HX  95
$$

TXZ014-016-019-021>030-083-290000
TEXAS TECH WEST TEXAS MESONET/TEXAS PANHANDLE/NORTHERN SOUTH PLAINS

CITY           SKY/WX    TMP DP  RH WIND       PRES   REMARKS
ABERNATHY 5ENE   N/A     84  60  44 SE9       29.92S
AMARILLO 9NNE    N/A     82  63  52 SE15      29.91S
AMARILLO 7SSE    N/A     76  63  62 E14       29.95R
AMHERST 1NE      N/A     93  42  17 W17       29.90F
BOOTLEG 11WNW    N/A     89  40  17 W13       29.99S
CANADIAN 6E      N/A     74  66  75 E7        29.88F
CAPROCK CYN SP   N/A     69  64  83 NE8       29.93R
CHILDRESS 2NNE LGT RAIN  69  63  81 W12       29.92R
CLARENDON 2WSW   N/A     71  63  76 SE9       29.90F
CLAUDE 12SW      N/A     73  63  69 SE13      29.94S
DIMMITT 2NE      N/A     92  41  17 SW17      29.92F
FLOYDADA 2NNE  RAIN      71  61  70 NW24G37   29.95R
FRIONA 2NE       N/A     92  35  13 W16       29.94F
GOODLETT 3W      N/A     78  61  55 NW23      29.87R
HART 3N          N/A     90  50  24 W10       29.91F
HEREFORD 2NW     N/A     89  46  22 N6        29.92F
MCLEAN 1E        N/A     71  67  88 S5        29.90R
MEMPHIS 1NE    LGT RAIN  67  65  92 SE6       29.91F
MULESHOE 2SSW    N/A     93  38  14 W16       29.92F
OLTON 6S         N/A     93  47  20 N7        29.89F
PALO DURO SP     N/A     77  65  67 SE12      29.95S
PAMPA 2E         N/A     83  62  49 SE13      29.91F
PLAINVIEW 1S     N/A     80  63  54 SE14      29.91R
SILVERTON 7ESE   N/A     71  62  72 E14       29.94R
TULIA 2ENE       N/A     83  65  53 E18       29.92S
TURKEY 2WSW      N/A     71  62  72 E16       29.90S
UMBARGER 3NNE    N/A     87  48  25 NW9       29.93F
$$

TXZ033>036-039>041-045>048-290000
TEXAS TECH WEST TEXAS MESONET/SOUTH PLAINS

CITY           SKY/WX    TMP DP  RH WIND       PRES   REMARKS
AIKEN 3WSW       N/A     74  65  73 SE10      29.92S
ANDREWS 2NE      N/A     88  54  30 E6        29.89S
ANTON 6SSW       N/A     94  51  23 W8        29.89R
BROWNFIELD 2S    N/A     85  58  40 SE14      29.90R
DENVR CTY 7WNW   N/A     92  48  21 W9        29.92F
GAIL 2ESE        N/A     92  57  30 S13       29.84S
LAMESA 2SE       N/A     81  60  49 SW9       29.92R
LEVELLAND 4S     N/A     93  49  22 W13       29.90S
LUBBOCK 3WNW     N/A     74  62  67 SE13      29.91S
MORTON 1ENE      N/A     92  46  20 W16       29.92F
ODONNELL 1N      N/A     87  58  37 S6        29.89F
PLAINS 3N        N/A     94  49  21 W13       29.92F
RALLS 1SE      LGT RAIN  74  62  64 W17G29    29.91F
REESE CENTER     N/A     79  64  60 E15       29.91R
SEAGRAVES 1SW    N/A     95  50  21 SW7       29.90S
SEMINOLE 2NNE    N/A     96  51  21 W7        29.89F
SLATON 2NE       N/A     77  56  48 NW21G32   29.91R
SNYDER 3E        N/A     96  58  27 SE18      29.83F HX  95
SUNDOWN 8SW      N/A     96  49  20 W10       29.90F
TAHOKA 3NNE      N/A     89  57  33 S10       29.89R
WOLFFORTH 6SSW   N/A     84  67  57 E6        29.91R
$$

TXZ031-032-036>038-042>044-290000-
TEXAS TECH WEST TEXAS MESONET/ROLLING PLAINS

CITY           SKY/WX    TMP DP  RH WIND       PRES   REMARKS
ASPERMONT 3NE    N/A     97  59  28 SE14      29.80S HX  96
FLUVANNA 3WNW    N/A     94  56  28 S15       29.85F
GRAHAM 5SSW      N/A     91  56  30 SW10      29.87R
GUTHRIE 10WSW    N/A     95  58  29 S15       29.79R
HASKELL 1NW      N/A     85  63  47 NE13      29.82S
JAYTON 1SSE      N/A     95  57  28 S16       29.80S
KNOX CITY 3NW    N/A     86  65  49 E16       29.81S
LK A HENRY 1NW   N/A     95  58  29 S13       29.82S
NORTHFIELD 1S  RAIN      67  66  95 SE20      29.90R
ODELL 4ENE       N/A     82  69  64 SE7       29.86S
PADUCAH 10SW     N/A     87  65  47 E18       29.84R
POST 1NE         N/A     92  58  31 S16       29.84R
SEYMOUR 3NW      N/A     81  70  68 E10       29.84F
SPUR 1W          N/A     90  59  35 NW9       29.82R
WEINERT 2NNE     N/A     86  68  54 E17       29.82F
WHITE RVR 6NE    N/A     81  64  56 NW12      29.85F
$$

TXZ052-054-060>062-072-078-127-140-154-169-290000-
TEXAS TECH WEST TEXAS MESONET/PERMIAN BASIN/
CONCHO VALLEY/BIG COUNTRY/EDWARDS PLATEAU

CITY           SKY/WX    TMP DP  RH WIND       PRES   REMARKS
JUNCTION 1SSW    N/A     95  62  33 N2        29.87S HX  95
MERTZON 3NNE     N/A     94  61  33 SE7       29.87F
SAN ANGELO 7NW   N/A     94  58  29 E12       29.86S
STRLNG CT 4WSW   N/A     94  61  32 E14       29.87F
ST LAWRNCE 5SW   N/A     93  56  28 SE17      29.88F
SWEETWATR 11SW   N/A     94  61  33 SE12      29.88F
WALL 1E          N/A     91  60  35 SE7       29.87S
$$

TXZ055-058-074-075-080-082-290000-
TEXAS TECH WEST TEXAS MESONET/FAR WEST/SOUTHWEST MOUNTAINS/TRANS PECOS

CITY           SKY/WX    TMP DP  RH WIND       PRES   REMARKS
PRSMN GAP BBNP   N/A     95  55  26 S14       29.89S
GUADLPE MTN NP   N/A     84  43  23 NW13      30.11F
$$


USA.gov is the U.S. government's official web portal to all federal, state and local government web resources and services.